Sacramento, CA

9:04 AM PST on February 12, 2016 (GMT -0800)
Sacramento Executive

Weather History for KSAC - February, 2012

Change the Weather History Date:

Tuesday, February 28, 2012

  Actual Average Record
Temperature  
Mean Temperature 46 °F -  
Max Temperature 56 °F 63 °F 74 °F (1985)
Min Temperature 35 °F 43 °F 30 °F (1945)
Degree Days  
Heating Degree Days 19    
Month to date heating degree days 377  
Cooling Degree Days 0    
Month to date cooling degree days 0  
Year to date cooling degree days 0  
Moisture  
Dew Point 34 °F    
Average Humidity 62    
Maximum Humidity 85    
Minimum Humidity 38    
Precipitation  
Precipitation 0.00 in 0.12 in 0.86 in (2014)
Month to date precipitation 0.54 3.47  
Year to date precipitation 2.97 7.11  
Since 1 July precipitation 5.32  
Sea Level Pressure  
Sea Level Pressure 30.14 in    
Wind  
Wind Speed 7 mph (South)    
Max Wind Speed 21 mph    
Max Gust Speed 26 mph    
Visibility 10 miles    
Events Rain    
T = Trace of Precipitation, MM = Missing Value Source: NWS Daily Summary

Daily Weather History Graph

Daily Weather History Graph

Search for Another Location

Airport or City:

Trip Planner

Search our weather history database for the weather conditions in past years. The results will help you decide how hot, cold, wet, or windy it might be!

Date:

Astronomy

Feb. 28, 2012 Rise Set
Actual Time 6:40 AM PST 5:57 PM PST
Civil Twilight 6:13 AM PST 6:24 PM PST
Nautical Twilight 5:42 AM PST 6:54 PM PST
Astronomical Twilight 5:12 AM PST 7:25 PM PST
Moon 9:56 AM PST (2/28) No Moon Set
Length of Visible Light 12h 10m
Length of Day
11h 17m
Waxing Crescent, 39% of the Moon is Illuminated
Feb 28
Waxing Crescent
Feb 29
First Quarter
Mar 8
Full
Mar 14
Last Quarter
Mar 22
New

Hourly Weather History & Observations

Time (PST) Temp. Windchill Dew Point Humidity Pressure Visibility Wind Dir Wind Speed Gust Speed Precip Events Conditions
12:53 AM 37.0 °F 34.5 °F 33.1 °F 86% 29.96 in 10.0 mi SW 3.5 mph - N/A   Clear
1:53 AM 37.9 °F - 33.1 °F 83% 29.99 in 10.0 mi Calm Calm - N/A   Clear
2:53 AM 37.0 °F 34.5 °F 33.1 °F 86% 30.00 in 10.0 mi SE 3.5 mph - N/A   Clear
3:53 AM 37.0 °F 34.5 °F 33.1 °F 86% 30.03 in 10.0 mi SE 3.5 mph - N/A   Clear
4:53 AM 37.0 °F 33.3 °F 33.1 °F 86% 30.05 in 10.0 mi SE 4.6 mph - N/A   Clear
5:53 AM 39.0 °F 34.0 °F 34.0 °F 82% 30.09 in 10.0 mi SE 6.9 mph - N/A   Mostly Cloudy
6:53 AM 39.0 °F 34.0 °F 34.0 °F 82% 30.12 in 10.0 mi SSE 6.9 mph - N/A   Scattered Clouds
7:53 AM 41.0 °F 35.2 °F 35.1 °F 79% 30.15 in 10.0 mi SSE 9.2 mph - N/A   Clear
8:53 AM 46.0 °F 41.4 °F 37.9 °F 73% 30.18 in 10.0 mi SSE 9.2 mph - N/A   Clear
9:53 AM 50.0 °F - 39.0 °F 66% 30.19 in 10.0 mi SSE 11.5 mph 20.7 mph N/A   Scattered Clouds
10:32 AM - - - N/A% 30.20 in 10.0 mi South 8.1 mph 18.4 mph N/A   Mostly Cloudy
10:50 AM - - - N/A% 30.20 in 10.0 mi South 13.8 mph 21.9 mph N/A   Mostly Cloudy
10:53 AM - - - N/A% 30.21 in 10.0 mi South 13.8 mph 21.9 mph N/A   Mostly Cloudy
11:53 AM 53.1 °F - 34.0 °F 48% 30.21 in - SSW 11.5 mph 19.6 mph N/A   Partly Cloudy
12:53 PM 53.1 °F - 34.0 °F 48% 30.20 in 10.0 mi North - - N/A   Mostly Cloudy
1:53 PM 54.0 °F - 33.1 °F 45% 30.19 in 10.0 mi SW 15.0 mph 25.3 mph N/A   Mostly Cloudy
2:53 PM 55.0 °F - 30.9 °F 40% 30.19 in 10.0 mi SW 15.0 mph 24.2 mph N/A   Mostly Cloudy
3:53 PM 53.1 °F - 32.0 °F 45% 30.19 in 10.0 mi SW 9.2 mph 20.7 mph N/A   Partly Cloudy
4:53 PM 53.1 °F - 32.0 °F 45% 30.19 in 10.0 mi SW 10.4 mph - N/A   Mostly Cloudy
5:53 PM 51.1 °F - 33.1 °F 50% 30.19 in 10.0 mi SW 8.1 mph - N/A   Overcast
6:53 PM 50.0 °F - 34.0 °F 54% 30.18 in 10.0 mi South 5.8 mph - N/A   Overcast
7:53 PM 50.0 °F - 34.0 °F 54% 30.18 in 10.0 mi South 4.6 mph - N/A   Overcast
8:53 PM 50.0 °F - 34.0 °F 54% 30.17 in 10.0 mi South 6.9 mph - N/A   Overcast
9:53 PM 48.9 °F - 37.0 °F 64% 30.17 in 10.0 mi South 8.1 mph - N/A   Overcast
10:53 PM 50.0 °F - 37.0 °F 61% 30.15 in 10.0 mi SSE 6.9 mph 18.4 mph 0.00 in Rain Light Rain
11:53 PM 48.0 °F - 37.9 °F 68% 30.12 in 10.0 mi SE 9.2 mph 23.0 mph 0.01 in   Overcast